Shaw Air Force Base, SC

12:48 AM EDT on September 30, 2016 (GMT -0400)
Shaw Air Force Base

Weather History for KSSC - October, 2013

Change the Weather History Date:

Tuesday, October 29, 2013

  Actual Average Record
Temperature  
Mean Temperature 62 °F -  
Max Temperature 76 °F 71 °F 83 °F (2014)
Min Temperature 49 °F 47 °F 30 °F (2001)
Degree Days  
Heating Degree Days 3    
Growing Degree Days 12 (Base 50)    
Moisture  
Dew Point 52 °F    
Average Humidity 78    
Maximum Humidity 95    
Minimum Humidity 43    
Precipitation  
Precipitation 0.00 in - - ()
Sea Level Pressure  
Sea Level Pressure 30.28 in    
Wind  
Wind Speed 1 mph (North)    
Max Wind Speed 8 mph    
Max Gust Speed -    
Visibility 9 miles    
Events Rain    
Averages and records for this station are not official NWS values.
T = Trace of Precipitation, MM = Missing Value Source: NWS Daily Summary

Daily Weather History Graph

Daily Weather History Graph

Search for Another Location

Airport or City:

Trip Planner

Search our weather history database for the weather conditions in past years. The results will help you decide how hot, cold, wet, or windy it might be!

Date:

Astronomy

Oct. 29, 2013 Rise Set
Actual Time 7:38 AM EDT 6:31 PM EDT
Civil Twilight 7:13 AM EDT 6:57 PM EDT
Nautical Twilight 6:43 AM EDT 7:26 PM EDT
Astronomical Twilight 6:14 AM EDT 7:56 PM EDT
Moon 2:41 AM EDT (10/29) 3:32 PM EDT (10/29)
Length of Visible Light 11h 44m
Length of Day
10h 52m
Waning Crescent, 25% of the Moon is Illuminated
Oct 29
Waning Crescent
Nov 3
New
Nov 10
First Quarter
Nov 17
Full
Nov 25
Last Quarter

Hourly Weather History & Observations

Time (EDT) Temp. Dew Point Humidity Pressure Visibility Wind Dir Wind Speed Gust Speed Precip Events Conditions
12:58 AM 53.1 °F 50.7 °F 92% 30.26 in 10.0 mi Calm Calm - N/A   Clear
1:58 AM 52.9 °F 50.9 °F 93% 30.25 in 10.0 mi Variable 1.2 mph - N/A   Mostly Cloudy
2:58 AM 50.4 °F 48.0 °F 92% 30.25 in 10.0 mi North 2.3 mph - N/A   Clear
3:58 AM 51.3 °F 48.9 °F 92% 30.25 in 10.0 mi Calm Calm - N/A   Clear
4:33 AM 51.8 °F 50.0 °F 94% 30.24 in 2.5 mi Calm Calm - N/A   Clear
4:38 AM 51.8 °F 50.0 °F 94% 30.24 in 1.2 mi Calm Calm - N/A   Clear
4:43 AM 51.8 °F 50.0 °F 94% 30.25 in 2.0 mi Calm Calm - N/A   Clear
4:48 AM 51.8 °F 50.0 °F 94% 30.25 in 10.0 mi Calm Calm - N/A   Clear
4:58 AM 51.4 °F 49.3 °F 92% 30.25 in 10.0 mi Calm Calm - N/A   Clear
5:58 AM 49.6 °F 48.2 °F 95% 30.27 in 10.0 mi Calm Calm - N/A   Clear
6:58 AM 50.5 °F 48.0 °F 91% 30.29 in 10.0 mi Calm Calm - N/A   Clear
7:58 AM 52.3 °F 50.7 °F 94% 30.30 in 10.0 mi Calm Calm - N/A   Clear
8:13 AM 51.8 °F 50.0 °F 94% 30.30 in 2.5 mi ESE 2.3 mph - N/A   Clear
8:23 AM 51.8 °F 50.0 °F 94% 30.30 in 6.0 mi East 2.3 mph - N/A   Clear
8:58 AM 55.0 °F 52.5 °F 91% 30.32 in 10.0 mi North 1.2 mph - N/A   Clear
9:00 AM 55.4 °F 53.6 °F 94% 30.31 in 10.0 mi North 2.3 mph - N/A   Light Drizzle
9:03 AM 55.4 °F 53.6 °F 94% 30.31 in 7.0 mi North 1.2 mph - N/A   Partly Cloudy
9:58 AM 61.0 °F 56.1 °F 84% 30.32 in 7.0 mi Calm Calm - N/A   Partly Cloudy
10:58 AM 66.7 °F 55.6 °F 67% 30.32 in 10.0 mi Variable 1.2 mph - N/A   Clear
11:58 AM 71.2 °F 53.8 °F 54% 30.32 in 10.0 mi Variable 1.2 mph - N/A   Clear
12:47 PM 73.4 °F 53.6 °F 50% 30.29 in 10.0 mi Calm Calm - N/A Rain Light Rain
12:54 PM 71.6 °F 55.4 °F 57% 30.29 in 10.0 mi Variable 3.5 mph - N/A   Clear
12:58 PM 72.0 °F 54.5 °F 54% 30.30 in 10.0 mi Calm Calm - 0.00 in   Clear
1:58 PM 74.7 °F 52.5 °F 46% 30.27 in 10.0 mi Calm Calm - N/A   Clear
2:58 PM 75.6 °F 52.0 °F 44% 30.25 in 10.0 mi West 8.1 mph - N/A   Partly Cloudy
3:58 PM 75.9 °F 51.6 °F 43% 30.25 in 10.0 mi Variable 5.8 mph - N/A   Partly Cloudy
4:58 PM 75.0 °F 51.3 °F 43% 30.23 in 10.0 mi WSW 2.3 mph - N/A   Clear
5:58 PM 73.2 °F 51.1 °F 46% 30.25 in 10.0 mi NNW 2.3 mph - N/A   Clear
6:58 PM 66.0 °F 53.1 °F 63% 30.26 in 10.0 mi NNE 2.3 mph - N/A   Clear
7:58 PM 62.4 °F 54.7 °F 76% 30.27 in 10.0 mi NNW 1.2 mph - N/A   Clear
8:58 PM 58.5 °F 53.8 °F 84% 30.28 in 10.0 mi Calm Calm - N/A   Clear
9:58 PM 56.8 °F 53.1 °F 87% 30.28 in 10.0 mi NNW 2.3 mph - N/A   Clear
10:58 PM 57.0 °F 52.7 °F 85% 30.29 in 10.0 mi Calm Calm - N/A   Clear
11:58 PM 55.9 °F 53.2 °F 91% 30.27 in 10.0 mi Calm Calm - N/A   Clear